カタログに戻る

DELTA 1 DEB

運用中SSO
NORAD 14463·DEBRIS·🇺🇸 United States

打ち上げ Mar 5, 1978 から Vandenberg Space Force Base

Loading…

次のパス (今後24時間)

TLE

最新Source: Space-Track

元期: Sep 14, 2026, 10:43 UTC

1 14463U 78026GD  26257.44680527  .00000619  00000-0  29866-3 0  9999
2 14463  98.8616 152.2502 0119209 123.7084 289.7632 14.18544787310619

AllMySatでDELTA 1 DEBをリアルタイム追跡

Download on the App Store